0% fanden dieses Dokument nützlich (0 Abstimmungen)
3 Ansichten3 Seiten

Weather Data

Das Dokument enthält Wetterdaten für verschiedene Städte, darunter Tokyo, New York und London, über mehrere Tage im Oktober 2024. Es listet Temperaturen und Luftfeuchtigkeit für jeden Tag auf. Die Daten zeigen signifikante Schwankungen in Temperatur und Luftfeuchtigkeit zwischen den Städten und Tagen.

Hochgeladen von

rashidsamad70
Copyright
© All Rights Reserved
Wir nehmen die Rechte an Inhalten ernst. Wenn Sie vermuten, dass dies Ihr Inhalt ist, beanspruchen Sie ihn hier.
Verfügbare Formate
Als XLSX, PDF, TXT herunterladen oder online auf Scribd lesen
0% fanden dieses Dokument nützlich (0 Abstimmungen)
3 Ansichten3 Seiten

Weather Data

Das Dokument enthält Wetterdaten für verschiedene Städte, darunter Tokyo, New York und London, über mehrere Tage im Oktober 2024. Es listet Temperaturen und Luftfeuchtigkeit für jeden Tag auf. Die Daten zeigen signifikante Schwankungen in Temperatur und Luftfeuchtigkeit zwischen den Städten und Tagen.

Hochgeladen von

rashidsamad70
Copyright
© All Rights Reserved
Wir nehmen die Rechte an Inhalten ernst. Wenn Sie vermuten, dass dies Ihr Inhalt ist, beanspruchen Sie ihn hier.
Verfügbare Formate
Als XLSX, PDF, TXT herunterladen oder online auf Scribd lesen

Date City Temperature

Humidity
0 2024-10-0 Tokyo 89.83 47.34
1 2024-10-0 New York 79.84 57.83
2 2024-10-0 Tokyo 52.9 74.65
3 2024-10-0 Tokyo 51.03 78.8
4 2024-10-0 London 60.62 47.27
5 2024-10-0 New York 80.87 64.47
6 2024-10-0 New York 71.6 51.65
7 2024-10-0 Tokyo 69.99 41.87
8 2024-10-0 Tokyo 72.8 71.41
9 2024-10-1 Tokyo 69.12 79.33
10 2024-10-1 New York 52.32 64.3
11 2024-10-1 New York 72.52 40.53
12 2024-10-1 New York 98.28 72.34
13 2024-10-1 New York 50.8 49.24
14 2024-10-1 Tokyo 84.16 64.4
15 2024-10-1 Tokyo 58.67 55.64
16 2024-10-1 London 83.13 52.47
17 2024-10-1 London 60.4 62.71
18 2024-10-1 New York 98.48 71.01
19 2024-10-2 London 69.76 77.07
20 2024-10-2 Tokyo 96.09 43.54
21 2024-10-2 Tokyo 76.04 78.45
22 2024-10-2 New York 69.43 50.85
23 2024-10-2 New York 79.34 78.61
24 2024-10-2 New York 57.05 72.09
25 2024-10-2 New York 50.78 56.94
26 2024-10-2 New York 59.94 40.22
27 2024-10-2 Tokyo 59.94 68.45
28 2024-10-2 Tokyo 88.56 42.96
29 2024-10-3 Tokyo 82.55 76.6
30 2024-10-0 New York 81.16 53.24
31 2024-10-0 Tokyo 65.55 53.01
32 2024-10-0 Tokyo 79.56 50.99
33 2024-10-0 Tokyo 73.61 44.78
34 2024-10-0 London 92.45 68.87
35 2024-10-0 Tokyo 88.55 59.75
36 2024-10-0 New York 85.53 44.44
37 2024-10-0 New York 60.09 75.83
38 2024-10-0 New York 65.72 60.34
39 2024-10-1 London 56.97 64.18
40 2024-10-1 Tokyo 87.78 49.15
41 2024-10-1 Tokyo 64.49 46.45
42 2024-10-1 London 81.22 51.83
43 2024-10-1 New York 93.57 72.15
44 2024-10-1 London 94.16 52.97
45 2024-10-1 Tokyo 94.8 52.72
46 2024-10-1 New York 63.61 65.91
47 2024-10-1 New York 90.9 74.43
48 2024-10-1 Tokyo 58.23 61.36
49 2024-10-2 London 61.11 44.79
50 2024-10-2 Tokyo 58.41 48.75
51 2024-10-2 New York 70.19 42.6
52 2024-10-2 London 98.12 50.07
53 2024-10-2 London 85.61 45.92
54 2024-10-2 New York 63.34 79.06
55 2024-10-2 London 51.65 53.8
56 2024-10-2 New York 61.98 45.8
57 2024-10-2 London 99.28 49.68
58 2024-10-2 Tokyo 88.08 49.51
59 2024-10-3 Tokyo 90.16 58.81
60 2024-10-0 London 81.68 61.43
61 2024-10-0 New York 57.54 60.33
62 2024-10-0 New York 92.92 53.04
63 2024-10-0 Tokyo 85.56 72.38
64 2024-10-0 Tokyo 58.72 67.64
65 2024-10-0 Tokyo 96.84 45.5
66 2024-10-0 New York 55.67 76.99
67 2024-10-0 London 84.79 49.14
68 2024-10-0 London 99.11 60.67
69 2024-10-1 New York 62.09 43.72
70 2024-10-1 New York 95.02 65.32
71 2024-10-1 New York 63.94 68.01
72 2024-10-1 Tokyo 92.82 56.18
73 2024-10-1 New York 82.1 43.37
74 2024-10-1 London 83.45 63.23
75 2024-10-1 London 97.01 78.95
76 2024-10-1 London 58.04 61.95
77 2024-10-1 London 72.42 79.78
78 2024-10-1 New York 50.9 59.76
79 2024-10-2 Tokyo 86.05 52.32
80 2024-10-2 Tokyo 68.39 50.61
81 2024-10-2 London 79.49 79.16
82 2024-10-2 Tokyo 94.6 65.25
83 2024-10-2 London 67.5 65.8
84 2024-10-2 Tokyo 74.63 47.81
85 2024-10-2 New York 74.96 62.88
86 2024-10-2 New York 52.18 79.78
87 2024-10-2 London 97.7 76.59
88 2024-10-2 Tokyo 87.39 78.12
89 2024-10-3 New York 71.41 78.67
90 2024-10-0 Tokyo 99.02 43.01
91 2024-10-0 New York 69.25 74.05
92 2024-10-0 Tokyo 58.47 62.27
93 2024-10-0 Tokyo 92.21 77.2
94 2024-10-0 London 54.86 64.6
95 2024-10-0 London 67.93 50.17
96 2024-10-0 London 93.87 69.63
97 2024-10-0 New York 56.83 68.36
98 2024-10-0 Tokyo 64.68 72.37
99 2024-10-1 Tokyo 62.81 64.46

Das könnte Ihnen auch gefallen